Hugo, OK

4:01 PM CST on February 06, 2016 (GMT -0600)
Stamper Municipal

Weather History for KHHW - February, 2014

Change the Weather History Date:

Thursday, February 20, 2014

  Actual Average Record
Temperature  
Mean Temperature 62 °F -  
Max Temperature 76 °F 63 °F 76 °F (2014)
Min Temperature 46 °F 37 °F 33 °F (2013)
Degree Days  
Heating Degree Days 4    
Growing Degree Days 12 (Base 50)    
Moisture  
Dew Point 47 °F    
Average Humidity 55    
Maximum Humidity 80    
Minimum Humidity 22    
Precipitation  
Precipitation 0.00 in - - ()
Sea Level Pressure  
Sea Level Pressure 29.80 in    
Wind  
Wind Speed 16 mph (West)    
Max Wind Speed 26 mph    
Max Gust Speed 37 mph    
Visibility 10 miles    
Events      
Averages and records for this station are not official NWS values.
T = Trace of Precipitation, MM = Missing Value Source: NWS Daily Summary

Daily Weather History Graph

Daily Weather History Graph

Search for Another Location

Airport or City:

Trip Planner

Search our weather history database for the weather conditions in past years. The results will help you decide how hot, cold, wet, or windy it might be!

Date:

Astronomy

Feb. 20, 2014 Rise Set
Actual Time 7:01 AM CST 6:10 PM CST
Civil Twilight 6:36 AM CST 6:36 PM CST
Nautical Twilight 6:06 AM CST 7:05 PM CST
Astronomical Twilight 5:37 AM CST 7:34 PM CST
Moon 11:48 PM CST (2/20) 10:01 AM CST (2/20)
Length of Visible Light 12h 00m
Length of Day
11h 09m
Waning Gibbous, 70% of the Moon is Illuminated
Feb 20
Waning Gibbous
Feb 22
Last Quarter
Mar 1
New
Mar 8
First Quarter
Mar 16
Full

Hourly Weather History & Observations

Time (CST) Temp. Dew Point Humidity Pressure Visibility Wind Dir Wind Speed Gust Speed Precip Events Conditions
12:15 AM 70.0 °F 63.7 °F 80% 29.64 in 10.0 mi South 13.8 mph 19.6 mph N/A   Clear
12:35 AM 70.0 °F 63.7 °F 80% 29.64 in 10.0 mi South 15.0 mph 23.0 mph N/A   Clear
12:55 AM 70.3 °F 63.1 °F 78% 29.64 in 10.0 mi South 13.8 mph 26.5 mph N/A   Clear
1:15 AM 70.2 °F 62.8 °F 77% 29.64 in 10.0 mi SSW 11.5 mph 23.0 mph N/A   Scattered Clouds
1:35 AM 70.7 °F 62.6 °F 75% 29.63 in 10.0 mi South 17.3 mph 24.2 mph N/A   Overcast
1:55 AM 70.7 °F 62.4 °F 75% 29.63 in 10.0 mi South 18.4 mph 26.5 mph N/A   Overcast
2:15 AM 70.7 °F 62.1 °F 74% 29.62 in 10.0 mi SSW 19.6 mph 28.8 mph N/A   Overcast
2:35 AM 70.3 °F 62.4 °F 76% 29.62 in 10.0 mi SSW 19.6 mph 27.6 mph N/A   Overcast
2:55 AM 70.3 °F 62.6 °F 76% 29.63 in 10.0 mi SSW 17.3 mph 28.8 mph N/A   Overcast
3:15 AM 70.2 °F 62.6 °F 77% 29.62 in 10.0 mi SSW 18.4 mph 24.2 mph N/A   Overcast
3:35 AM 70.0 °F 62.6 °F 77% 29.62 in 10.0 mi SSW 18.4 mph 32.2 mph N/A   Overcast
3:55 AM 70.0 °F 62.6 °F 77% 29.61 in 10.0 mi SSW 20.7 mph 29.9 mph N/A   Overcast
4:15 AM 70.0 °F 62.4 °F 77% 29.60 in 10.0 mi South 19.6 mph 29.9 mph N/A   Overcast
4:35 AM 70.0 °F 62.2 °F 76% 29.60 in 10.0 mi South 17.3 mph 26.5 mph N/A   Overcast
4:55 AM 70.0 °F 62.1 °F 76% 29.59 in 10.0 mi South 18.4 mph 31.1 mph N/A   Overcast
5:15 AM 70.0 °F 61.7 °F 75% 29.59 in 10.0 mi South 18.4 mph 33.4 mph N/A   Overcast
5:35 AM 69.4 °F 61.7 °F 76% 29.60 in 10.0 mi South 24.2 mph 33.4 mph N/A   Overcast
5:55 AM 69.3 °F 61.7 °F 77% 29.60 in 10.0 mi SSW 13.8 mph 26.5 mph N/A   Overcast
6:15 AM 69.1 °F 61.7 °F 77% 29.61 in 10.0 mi SSW 20.7 mph 29.9 mph N/A   Overcast
6:35 AM 69.3 °F 61.9 °F 77% 29.61 in 10.0 mi SSW 20.7 mph 31.1 mph N/A   Overcast
6:55 AM 69.3 °F 62.2 °F 78% 29.62 in 10.0 mi SSW 20.7 mph 28.8 mph N/A   Overcast
7:15 AM 69.3 °F 62.6 °F 79% 29.62 in 10.0 mi SSW 18.4 mph 28.8 mph N/A   Overcast
7:35 AM 69.8 °F 62.8 °F 78% 29.63 in 10.0 mi SSW 20.7 mph 31.1 mph N/A   Overcast
7:55 AM 70.0 °F 63.0 °F 78% 29.63 in 10.0 mi SSW 16.1 mph 26.5 mph N/A   Overcast
8:15 AM 70.7 °F 63.3 °F 77% 29.65 in 10.0 mi SW 17.3 mph 26.5 mph N/A   Overcast
8:35 AM 71.4 °F 63.5 °F 76% 29.66 in 10.0 mi North - - N/A   Overcast
8:55 AM 72.1 °F 63.5 °F 74% 29.66 in 10.0 mi North - - N/A   Overcast
9:15 AM 73.0 °F 63.7 °F 72% 29.66 in 10.0 mi SW 19.6 mph 28.8 mph N/A   Overcast
9:35 AM 73.6 °F 63.5 °F 71% 29.67 in 10.0 mi SW 20.7 mph - N/A   Overcast
9:55 AM 73.9 °F 63.0 °F 68% 29.68 in 10.0 mi North - - N/A   Mostly Cloudy
10:15 AM 74.5 °F 62.6 °F 66% 29.69 in 10.0 mi SW 18.4 mph - N/A   Scattered Clouds
10:35 AM 74.7 °F 62.1 °F 65% 29.70 in 10.0 mi North - - N/A   Mostly Cloudy
10:55 AM 75.6 °F 60.4 °F 59% 29.71 in 10.0 mi North - - N/A   Mostly Cloudy
11:15 AM 75.4 °F 46.9 °F 36% 29.73 in 10.0 mi WNW 24.2 mph 36.8 mph N/A   Mostly Cloudy
11:35 AM 76.6 °F 35.2 °F 22% 29.74 in 10.0 mi West 19.6 mph 28.8 mph N/A   Scattered Clouds
11:55 AM 75.9 °F 38.3 °F 26% 29.76 in 10.0 mi WNW 21.9 mph 34.5 mph N/A   Mostly Cloudy
12:15 PM 74.3 °F 37.6 °F 26% 29.78 in 10.0 mi WNW 23.0 mph 33.4 mph N/A   Mostly Cloudy
12:35 PM 72.3 °F 38.3 °F 29% 29.79 in 10.0 mi WNW 23.0 mph 33.4 mph N/A   Scattered Clouds
12:55 PM 71.4 °F 37.6 °F 29% 29.80 in 10.0 mi NW 23.0 mph 32.2 mph N/A   Clear
1:15 PM 71.1 °F 39.0 °F 31% 29.81 in 10.0 mi WNW 26.5 mph 31.1 mph N/A   Clear
1:35 PM 69.3 °F 38.3 °F 32% 29.81 in 10.0 mi NW 19.6 mph 31.1 mph N/A   Clear
1:55 PM 68.9 °F 38.7 °F 33% 29.82 in 10.0 mi NW 23.0 mph 32.2 mph N/A   Clear
2:15 PM 67.3 °F 36.1 °F 32% 29.82 in 10.0 mi WNW 24.2 mph 33.4 mph N/A   Clear
2:35 PM 66.6 °F 36.3 °F 33% 29.83 in 10.0 mi WNW 19.6 mph 35.7 mph N/A   Clear
2:55 PM 66.6 °F 37.2 °F 34% 29.84 in 10.0 mi NW 24.2 mph 31.1 mph N/A   Clear
3:15 PM 65.8 °F 36.5 °F 34% 29.85 in 10.0 mi NNW 18.4 mph 29.9 mph N/A   Clear
3:35 PM 65.3 °F 36.0 °F 34% 29.87 in 10.0 mi NNW 19.6 mph 29.9 mph N/A   Clear
3:55 PM 64.4 °F 34.5 °F 33% 29.88 in 10.0 mi NNW 19.6 mph 27.6 mph N/A   Clear
4:15 PM 63.7 °F 34.2 °F 33% 29.89 in 10.0 mi NNW 20.7 mph 27.6 mph N/A   Clear
4:35 PM 63.1 °F 34.0 °F 34% 29.90 in 10.0 mi NNW 19.6 mph 27.6 mph N/A   Clear
4:55 PM 62.1 °F 32.9 °F 34% 29.91 in 10.0 mi NW 20.7 mph 27.6 mph N/A   Clear
5:15 PM 61.3 °F 32.7 °F 34% 29.92 in 10.0 mi NNW 19.6 mph 25.3 mph N/A   Clear
5:35 PM 60.4 °F 33.1 °F 36% 29.94 in 10.0 mi NNW 15.0 mph - N/A   Clear
5:55 PM 59.5 °F 32.9 °F 37% 29.95 in 10.0 mi NNW 11.5 mph 21.9 mph N/A   Clear
6:15 PM 57.9 °F 33.4 °F 40% 29.97 in 10.0 mi NW 8.1 mph - N/A   Clear
6:35 PM 57.2 °F 32.7 °F 40% 29.98 in 10.0 mi NW 8.1 mph - N/A   Clear
6:55 PM 56.3 °F 32.7 °F 41% 29.99 in 10.0 mi NW 6.9 mph - N/A   Clear
7:15 PM 54.7 °F 32.7 °F 43% 30.00 in 10.0 mi NW 5.8 mph - N/A   Clear
7:35 PM 53.6 °F 32.4 °F 44% 30.02 in 10.0 mi NW 5.8 mph - N/A   Clear
7:55 PM 52.9 °F 32.0 °F 45% 30.03 in 10.0 mi NW 4.6 mph - N/A   Clear
8:15 PM 51.8 °F 32.4 °F 48% 30.03 in 10.0 mi WNW 6.9 mph - N/A   Clear
8:35 PM 51.6 °F 32.0 °F 47% 30.04 in 10.0 mi WNW 4.6 mph - N/A   Clear
8:55 PM 52.0 °F 31.3 °F 45% 30.04 in 10.0 mi WNW 4.6 mph - N/A   Clear
9:15 PM 51.8 °F 30.9 °F 45% 30.05 in 10.0 mi WNW 5.8 mph - N/A   Clear
9:35 PM 50.0 °F 31.6 °F 49% 30.06 in 10.0 mi WNW 5.8 mph - N/A   Clear
9:55 PM 49.1 °F 31.8 °F 51% 30.06 in 10.0 mi WNW 5.8 mph - N/A   Clear
10:15 PM 48.6 °F 30.9 °F 51% 30.07 in 10.0 mi WNW 6.9 mph - N/A   Clear
10:35 PM 49.1 °F 30.2 °F 48% 30.07 in 10.0 mi WNW 5.8 mph - N/A   Clear
10:55 PM 48.2 °F 30.0 °F 49% 30.08 in 10.0 mi WNW 5.8 mph - N/A   Clear
11:15 PM 47.3 °F 29.8 °F 51% 30.09 in 10.0 mi WNW 6.9 mph - N/A   Clear
11:35 PM 47.3 °F 27.9 °F 47% 30.08 in 10.0 mi WNW 5.8 mph - N/A   Clear
11:55 PM 46.6 °F 27.5 °F 47% 30.09 in 10.0 mi WNW 6.9 mph - N/A   Clear